Gewässerkundlicher Dienst Bayern
  • English version

Aktuelle Messwerte Heppdiel

Lufttemperatur vom 28.04.2026 bis zum 04.05.2026
Hinweis
Luftfeuchtegeber defekt.
Lufttemperatur vom 28.04.2026 bis zum 04.05.2026
DatumLufttemperatur [°C]
04.05.2026 18:0019,5
04.05.2026 17:0020,1
04.05.2026 16:0020,7
04.05.2026 15:0020,7
04.05.2026 14:0020,3
04.05.2026 13:0020,8
04.05.2026 12:0021,2
04.05.2026 11:0020,5
04.05.2026 10:0019,6
04.05.2026 09:0018,1
04.05.2026 08:0015,1
04.05.2026 07:0012,9
04.05.2026 06:008,4
04.05.2026 05:007,9
04.05.2026 04:007,9
04.05.2026 03:009,6
04.05.2026 02:0012,4
04.05.2026 01:0013,9
04.05.2026 00:0014,8
03.05.2026 23:0015,7
03.05.2026 22:0017,0
03.05.2026 21:0018,1
03.05.2026 20:0018,1
03.05.2026 19:0019,1
03.05.2026 18:0020,6
03.05.2026 17:0021,7
03.05.2026 16:0022,2
03.05.2026 15:0022,8
03.05.2026 14:0022,7
03.05.2026 13:0023,9
03.05.2026 12:0023,4
03.05.2026 11:0021,0
03.05.2026 10:0020,5
03.05.2026 09:0019,3
03.05.2026 08:0014,2
03.05.2026 07:0010,6
03.05.2026 06:009,2
03.05.2026 05:008,7
03.05.2026 04:007,7
03.05.2026 03:009,0
03.05.2026 02:009,1
03.05.2026 01:0010,2
03.05.2026 00:0010,9
02.05.2026 23:0012,1
02.05.2026 22:0011,4
02.05.2026 21:0012,8
02.05.2026 20:0017,5
02.05.2026 19:0021,5
02.05.2026 18:0023,4
02.05.2026 17:0023,7
02.05.2026 16:0024,1
02.05.2026 15:0024,8
02.05.2026 14:0023,6
02.05.2026 13:0023,3
02.05.2026 12:0022,4
02.05.2026 11:0020,6
02.05.2026 10:0018,1
02.05.2026 09:0015,5
02.05.2026 08:0011,9
02.05.2026 07:009,3
02.05.2026 06:005,3
02.05.2026 05:004,1
02.05.2026 04:004,5
02.05.2026 03:005,6
02.05.2026 02:007,2
02.05.2026 01:006,2
02.05.2026 00:007,7
01.05.2026 23:007,8
01.05.2026 22:0010,8
01.05.2026 21:0013,7
01.05.2026 20:0016,9
01.05.2026 19:0019,6
01.05.2026 18:0020,7
01.05.2026 17:0021,1
01.05.2026 16:0020,9
01.05.2026 15:0020,5
01.05.2026 14:0019,7
01.05.2026 13:0018,7
01.05.2026 12:0017,6
01.05.2026 11:0016,0
01.05.2026 10:0013,7
01.05.2026 09:0012,4
01.05.2026 08:009,6
01.05.2026 07:006,7
01.05.2026 06:002,3
01.05.2026 05:002,0
01.05.2026 04:002,9
01.05.2026 03:005,2
01.05.2026 02:006,4
01.05.2026 01:008,4
01.05.2026 00:009,4
30.04.2026 23:009,9
30.04.2026 22:0010,7
30.04.2026 21:0011,8
30.04.2026 20:0013,2
30.04.2026 19:0015,1
30.04.2026 18:0015,7
30.04.2026 17:0015,6
30.04.2026 16:0015,5
30.04.2026 15:0015,0
30.04.2026 14:0014,3
30.04.2026 13:0013,3
30.04.2026 12:0012,0
30.04.2026 11:0010,3
30.04.2026 10:009,3
30.04.2026 09:008,1
30.04.2026 08:006,6
30.04.2026 07:004,7
30.04.2026 06:003,4
30.04.2026 05:003,4
30.04.2026 04:004,3
30.04.2026 03:005,2
30.04.2026 02:005,7
30.04.2026 01:006,4
30.04.2026 00:007,2
29.04.2026 23:008,4
29.04.2026 22:009,9
29.04.2026 21:0011,3
29.04.2026 20:0012,9
29.04.2026 19:0014,6
29.04.2026 18:0015,6
29.04.2026 17:0016,1
29.04.2026 16:0016,3
29.04.2026 15:0016,0
29.04.2026 14:0015,7
29.04.2026 13:0015,2
29.04.2026 12:0014,6
29.04.2026 11:0013,6
29.04.2026 10:0012,5
29.04.2026 09:0010,6
29.04.2026 08:008,8
29.04.2026 07:006,8
29.04.2026 06:005,8
29.04.2026 05:006,0
29.04.2026 04:006,8
29.04.2026 03:007,4
29.04.2026 02:008,0
29.04.2026 01:008,7
29.04.2026 00:009,5
28.04.2026 23:0010,4
28.04.2026 22:0012,0
28.04.2026 21:0013,5
28.04.2026 20:0015,4
28.04.2026 19:0017,5
28.04.2026 18:0018,5
28.04.2026 17:0019,1
28.04.2026 16:0019,3
28.04.2026 15:0019,3
28.04.2026 14:0018,8
28.04.2026 13:0018,0
28.04.2026 12:0017,3
28.04.2026 11:0015,9
28.04.2026 10:0014,4
28.04.2026 09:0012,5
28.04.2026 08:0010,6
28.04.2026 07:008,6
28.04.2026 06:007,6
28.04.2026 05:007,8
28.04.2026 04:008,3
28.04.2026 03:008,7
28.04.2026 02:009,2
28.04.2026 01:009,4
28.04.2026 00:0010,0
Ihre Auswahl wurde erfolgreich in den Download-Korb gelegt.